Lake Charles Regional, LA

9:39 AM CST on December 18, 2017 (GMT -0600)
Lake Charles Regional

Weather History for KLCH - March, 2013

Change the Weather History Date:

Wednesday, March 13, 2013

  Actual Average Record
Temperature  
Mean Temperature 57 °F 61 °F  
Max Temperature 72 °F 71 °F 84 °F (1928)
Min Temperature 42 °F 51 °F 29 °F (1948)
Degree Days  
Heating Degree Days 8 6  
Month to date heating degree days 127 88  
Since 1 July heating degree days 1096 1370  
Cooling Degree Days 0 1  
Month to date cooling degree days 0 13  
Year to date cooling degree days 30 36  
Growing Degree Days 7 (Base 50)    
Moisture  
Dew Point 35 °F    
Average Humidity 55    
Maximum Humidity 93    
Minimum Humidity 17    
Precipitation  
Precipitation 0.00 in 0.10 in 2.24 in (2003)
Month to date precipitation 1.06 1.55  
Year to date precipitation 17.65 10.24  
Snow  
Snow 0.00 in 0.00 in 0.00 in ()
Month to date snowfall 0.0 0.0  
Since 1 July snowfall 0.0 0.1  
Snow Depth 0.00 in    
Sea Level Pressure  
Sea Level Pressure 30.38 in    
Wind  
Wind Speed 6 mph (NNE)    
Max Wind Speed 20 mph    
Max Gust Speed 23 mph    
Visibility 10 miles    
Events      
T = Trace of Precipitation, MM = Missing Value Source: NWS Daily Summary

Daily Weather History Graph

Daily Weather History Graph

Search for Another Location

Airport or City:

Trip Planner

Search our weather history database for the weather conditions in past years. The results will help you decide how hot, cold, wet, or windy it might be!

Date:

Astronomy

Mar. 13, 2013 Rise Set
Actual Time 7:24 AM CDT 7:20 PM CDT
Civil Twilight 7:00 AM CDT 7:44 PM CDT
Nautical Twilight 6:33 AM CDT 8:11 PM CDT
Astronomical Twilight 6:05 AM CDT 8:39 PM CDT
Moon 8:15 AM CDT (3/13) 9:23 PM CDT (3/13)
Length of Visible Light 12h 43m
Length of Day
11h 55m
Waxing Crescent, 4% of the Moon is Illuminated
Mar 13
Waxing Crescent
Mar 19
First Quarter
Mar 27
Full
Apr 2
Last Quarter
Apr 10
New

Hourly Weather History & Observations

Time (CDT) Temp. Windchill Dew Point Humidity Pressure Visibility Wind Dir Wind Speed Gust Speed Precip Events Conditions
12:53 AM 46.0 °F - 43.0 °F 89% 30.29 in 9.0 mi Calm Calm - N/A   Clear
1:53 AM 46.9 °F - 44.1 °F 90% 30.30 in 9.0 mi WNW 4.6 mph - N/A   Clear
2:53 AM 45.0 °F - 42.1 °F 90% 30.30 in 8.0 mi Calm Calm - N/A   Clear
3:53 AM 45.0 °F - 42.1 °F 90% 30.30 in 5.0 mi Calm Calm - N/A   Clear
4:53 AM 44.1 °F - 41.0 °F 89% 30.31 in 8.0 mi Calm Calm - N/A   Clear
5:53 AM 44.1 °F - 41.0 °F 89% 30.33 in 10.0 mi Calm Calm - N/A   Clear
6:53 AM 44.1 °F 41.5 °F 39.0 °F 82% 30.37 in 10.0 mi North 4.6 mph - N/A   Clear
7:53 AM 46.9 °F - 37.0 °F 68% 30.39 in 10.0 mi NE 5.8 mph - N/A   Clear
8:53 AM 52.0 °F - 39.0 °F 61% 30.42 in 10.0 mi NE 8.1 mph - N/A   Clear
9:53 AM 59.0 °F - 36.0 °F 42% 30.44 in 10.0 mi NE 17.3 mph - N/A   Clear
10:53 AM 61.0 °F - 34.0 °F 36% 30.47 in 10.0 mi ENE 16.1 mph - N/A   Clear
11:53 AM 64.0 °F - 33.1 °F 31% 30.47 in 10.0 mi NE 15.0 mph - N/A   Clear
12:53 PM 66.0 °F - 32.0 °F 28% 30.45 in 10.0 mi NE 9.2 mph 17.3 mph N/A   Clear
1:53 PM 68.0 °F - 30.0 °F 24% 30.42 in 10.0 mi ENE 11.5 mph 17.3 mph N/A   Clear
2:53 PM 71.1 °F - 27.0 °F 19% 30.39 in 10.0 mi North 8.1 mph - N/A   Clear
3:53 PM 71.1 °F - 25.0 °F 18% 30.37 in 10.0 mi North 13.8 mph 20.7 mph N/A   Clear
4:53 PM 72.0 °F - 25.0 °F 17% 30.35 in 10.0 mi Variable 6.9 mph - N/A   Clear
5:53 PM 71.1 °F - 26.1 °F 19% 30.36 in 10.0 mi North 11.5 mph - N/A   Clear
6:53 PM 66.9 °F - 28.0 °F 23% 30.36 in 10.0 mi NNE 5.8 mph - N/A   Clear
7:53 PM 60.1 °F - 30.9 °F 33% 30.37 in 10.0 mi NNE 6.9 mph - N/A   Clear
8:53 PM 55.0 °F - 35.1 °F 47% 30.38 in 10.0 mi Calm Calm - N/A   Clear
9:53 PM 50.0 °F - 36.0 °F 59% 30.41 in 10.0 mi Calm Calm - N/A   Clear
10:53 PM 50.0 °F - 37.9 °F 63% 30.42 in 10.0 mi Calm Calm - N/A   Clear
11:53 PM 46.9 °F - 39.9 °F 77% 30.41 in 10.0 mi Calm Calm - N/A   Clear